This demonstration page uses our WeatherBlox Daily Observations layout. Learn more.

Left ArrowRight Arrow

39.12711, -84.51439

Hourly Observations for June 1, 2019

Temp ( °F °C ) Dew Point ( °F °C ) Humidity (%) Winds ( mph kmh ) Pressure ( in mb ) Visibility ( mi km ) Precip ( " mm )
12:18 am 00:18 Mostly Cloudy with Mist and Fog 62 16.7 61 16.1 96 96 VRB 5 7 29.90 1013 1 1 0.00 0.00
12:29 am 00:29 Mostly Clear with Mist and Fog 61 16.1 60 15.6 97 97 undefined N/A 29.90 1012 1 2 0.00 0.00
12:33 am 00:33 Mostly Clear with Mist and Fog 61 16.1 60 15.6 97 97 undefined N/A 29.91 1013 3 5 0.00 0.00
12:53 am 00:53 Clear with Mist and Fog 61 16.1 60 15.6 97 97 VRB 5 7 29.89 1012 6 10 0.00 0.00
1:01 am 01:01 Mostly Clear with Mist and Fog 60 15.6 60 15.6 100 100 VRB 5 7 29.90 1012 1 2 0.00 0.00
1:03 am 01:03 Mostly Cloudy with Mist and Fog 61 16.1 60 15.6 97 97 VRB 5 7 29.90 1012 1 1 0.00 0.00
1:13 am 01:13 Partly Cloudy with Mist and Fog 61 16.1 60 15.6 97 97 Calm 29.90 1012 1 2 0.00 0.00
1:28 am 01:28 Mostly Clear with Mist and Fog 60 15.6 60 15.6 100 100 Calm 29.90 1012 3 5 0.00 0.00
1:34 am 01:34 Mostly Clear with Mist and Fog 61 16.1 60 15.6 97 97 Calm 29.90 1012 2 2 0.00 0.00
1:39 am 01:39 Mostly Cloudy with Fog 61 16.1 60 15.6 97 97 Calm 29.90 1012 1 1 0.00 0.00
1:48 am 01:48 Mostly Cloudy with Fog 61 16 61 16 100 100 Calm 29.90 1012 0 0 0.00 0.00
1:53 am 01:53 Mostly Cloudy with Fog 60 15.6 59 15 96 96 Calm 29.89 1012 0 0 0.00 0.00
2:05 am 02:05 Cloudy with Mist and Fog 60 15.6 59 15 96 96 Calm 29.90 1012 1 2 0.00 0.00
2:09 am 02:09 Cloudy with Mist and Fog 60 15.6 60 15.6 100 100 Calm 29.90 1012 3 5 0.00 0.00
2:11 am 02:11 Cloudy with Mist and Fog 60 15.6 60 15.6 100 100 Calm 29.90 1012 2 3 0.00 0.00
2:21 am 02:21 Mostly Cloudy with Fog 60 15.6 59 15 96 96 Calm 29.91 1013 0 0 0.00 0.00
2:53 am 02:53 Mostly Cloudy with Fog 60 15.6 60 15.6 100 100 Calm 29.90 1013 0 0 0.00 0.00
3:53 am 03:53 Mostly Cloudy with Fog 61 16.1 61 16.1 100 100 Calm 29.90 1013 5 8 0.00 0.00
4:53 am 04:53 Mostly Cloudy with Fog 60 15.6 60 15.6 100 100 Calm 29.90 1013 0 0 0.00 0.00
5:29 am 05:29 Mostly Cloudy with Fog 60 15.6 60 15.6 100 100 SE 3 6 29.91 1013 1 1 0.00 0.00
5:39 am 05:39 Mostly Cloudy with Mist and Fog 60 15.6 60 15.6 100 100 Calm 29.91 1013 1 2 0.00 0.00
5:53 am 05:53 Mostly Cloudy with Fog 60 15.6 59 15 96 96 Calm 29.90 1013 1 1 0.00 0.00
6:03 am 06:03 Mostly Cloudy with Fog 59 15 58 14.4 96 96 Calm 29.91 1013 0 0 0.00 0.00
6:14 am 06:14 Mostly Cloudy with Fog 59 15 59 15 100 100 SSE 3 6 29.92 1013 1 1 0.00 0.00
6:35 am 06:35 Mostly Cloudy with Fog 60 15.6 60 15.6 100 100 Calm 29.92 1013 0 0 0.00 0.00
6:53 am 06:53 Mostly Cloudy with Fog 61 16.1 60 15.6 97 97 Calm 29.91 1013 5 8 0.00 0.00
7:53 am 07:53 Mostly Cloudy with Fog 61 16.1 61 16.1 100 100 Calm 29.92 1013 0 0 0.00 0.00
8:34 am 08:34 Cloudy with Mist and Fog 62 16.7 62 16.7 100 100 Calm 29.93 1014 1 2 0.00 0.00
8:46 am 08:46 Mostly Cloudy with Mist and Fog 63 17.2 62 16.7 97 97 Calm 29.93 1014 3 5 0.00 0.00
8:53 am 08:53 Mostly Cloudy with Mist and Fog 63 17.2 62 16.7 97 97 Calm 29.93 1014 6 10 0.00 0.00
9:00 am 09:00 Partly Cloudy 64 17.8 63 17.2 96 96 Calm 29.93 1014 7 11 0.00 0.00
9:53 am 09:53 Sunny 69 20.6 64 17.8 84 84 Calm 29.93 1014 10 16 0.00 0.00
10:53 am 10:53 Sunny 74 23.3 66 18.9 76 76 VRB 3 6 29.91 1013 10 16 0.00 0.00
11:53 am 11:53 Sunny 78 25.6 63 17.2 60 60 WSW 6 9 29.90 1013 10 16 0.00 0.00
12:53 pm 12:53 Mostly Sunny 79 26.1 62 16.7 56 56 SW 6 9 29.89 1012 10 16 0.00 0.00
1:53 pm 13:53 Mostly Sunny 80 26.7 62 16.7 54 54 WSW 6 9 29.87 1012 10 16 0.00 0.00
2:53 pm 14:53 Mostly Sunny 80 26.7 63 17.2 56 56 S 9 15 29.85 1011 10 16 0.00 0.00
3:53 pm 15:53 Mostly Sunny 81 27.2 62 16.7 53 53 SSW 7 11 29.84 1011 10 16 0.00 0.00
4:53 pm 16:53 Sunny 80 26.7 61 16.1 52 52 SSW 13 20 29.83 1010 10 16 0.00 0.00
5:53 pm 17:53 Partly Cloudy 81 27.2 62 16.7 53 53 SW 12 19 29.82 1010 10 16 0.00 0.00
6:53 pm 18:53 Mostly Sunny 79 26.1 62 16.7 56 56 SW 8 13 29.80 1009 10 16 0.00 0.00
7:53 pm 19:53 Sunny 76 24.4 62 16.7 62 62 SSW 9 15 29.80 1009 10 16 0.00 0.00
8:53 pm 20:53 Sunny 70 21.1 62 16.7 76 76 S 7 11 29.80 1009 10 16 0.00 0.00
9:53 pm 21:53 Clear 67 19.4 63 17.2 87 87 SSW 7 11 29.80 1009 10 16 0.00 0.00
10:53 pm 22:53 Clear 69 20.6 62 16.7 78 78 SSW 5 7 29.81 1009 10 16 0.00 0.00
11:53 pm 23:53 Clear 69 20.6 61 16.1 76 76 SW 8 13 29.78 1008 10 16 0.00 0.00

Powered by AerisWeather